Southend-On-Sea, United Kingdom

12:41 PM GMT on November 15, 2018 (GMT +0000)
Southend

Weather History for EGMC - February, 2018

Change the Weather History Date:

Tuesday, February 13, 2018

  Actual Average Record
Temperature  
Mean Temperature 37 °F -  
Max Temperature 41 °F 47 °F 62 °F (1998)
Min Temperature 33 °F 37 °F 24 °F (1999)
Degree Days  
Heating Degree Days 28    
Moisture  
Dew Point 34 °F    
Average Humidity 84    
Maximum Humidity 93    
Minimum Humidity 75    
Precipitation  
Precipitation 0.00 in - - ()
Sea Level Pressure  
Sea Level Pressure 29.61 in    
Wind  
Wind Speed 15 mph ()    
Max Wind Speed 24 mph    
Max Gust Speed 36 mph    
Visibility 5.9 miles    
Events Rain    
Averages and records for this station are not official NWS values.
T = Trace of Precipitation, MM = Missing Value Source: Averaged Metar Reports

Daily Weather History Graph

Daily Weather History Graph

Search for Another Location

Airport or City:

Astronomy

Feb. 13, 2018 Rise Set
Actual Time 7:15 AM GMT 5:08 PM GMT
Civil Twilight 6:40 AM GMT 5:43 PM GMT
Nautical Twilight 6:01 AM GMT 6:22 PM GMT
Astronomical Twilight 5:22 AM GMT 7:01 PM GMT
Moon 5:57 AM GMT (2/13) 2:47 PM GMT (2/13)
Length of Visible Light 11h 02m
Length of Day
9h 53m
Waning Crescent, 5% of the Moon is Illuminated
Feb 13
Waning Crescent
Feb 15
New
Feb 23
First Quarter
Mar 2
Full
Mar 9
Last Quarter

Hourly Weather History & Observations

Time (GMT) Temp. Windchill Dew Point Humidity Pressure Visibility Wind Dir Wind Speed Gust Speed Precip Events Conditions
12:50 AM 37.4 °F 28.9 °F 32.0 °F 81% 29.80 in 6.2 mi SSW 13.8 mph - N/A   Scattered Clouds
1:50 AM 33.8 °F 24.3 °F 32.0 °F 93% 29.77 in - SSW 13.8 mph - N/A   Clear
2:50 AM 37.4 °F 28.9 °F 32.0 °F 81% 29.74 in - SSW 13.8 mph - N/A   Clear
3:50 AM 37.4 °F 28.9 °F 32.0 °F 81% 29.71 in - South 13.8 mph - N/A   Clear
4:20 AM 39.2 °F 32.0 °F 33.8 °F 81% 29.68 in - South 11.5 mph - N/A   Clear
5:20 AM 39.2 °F 31.2 °F 33.8 °F 81% 29.65 in - SSE 13.8 mph - N/A   Clear
5:50 AM 39.2 °F 31.2 °F 33.8 °F 81% 29.65 in - SSE 13.8 mph - N/A   Clear
6:50 AM 39.2 °F 30.2 °F 33.8 °F 81% 29.62 in - SSE 17.3 mph - N/A   Clear
7:20 AM 39.2 °F 29.3 °F 33.8 °F 81% 29.62 in 6.2 mi SSE 20.7 mph - N/A   Scattered Clouds
7:50 AM 39.2 °F 29.6 °F 33.8 °F 81% 29.62 in 6.2 mi South 19.6 mph - N/A   Scattered Clouds
8:20 AM 39.2 °F 29.6 °F 33.8 °F 81% 29.59 in 6.2 mi South 19.6 mph - N/A   Scattered Clouds
8:50 AM 39.2 °F 30.2 °F 33.8 °F 81% 29.59 in 6.2 mi SSE 17.3 mph - N/A   Partly Cloudy
9:20 AM 39.2 °F 29.0 °F 33.8 °F 81% 29.59 in 6.2 mi SSE 21.9 mph - N/A   Scattered Clouds
9:50 AM 41.0 °F 31.4 °F 33.8 °F 76% 29.56 in 6.2 mi SSE 21.9 mph - N/A   Scattered Clouds
10:20 AM 41.0 °F 31.1 °F 35.6 °F 81% 29.56 in 6.2 mi South 23.0 mph - N/A   Scattered Clouds
10:50 AM 39.2 °F 28.5 °F 32.0 °F 75% 29.56 in 6.2 mi South 24.2 mph 35.7 mph N/A   Mostly Cloudy
11:20 AM 41.0 °F 31.6 °F 33.8 °F 76% 29.56 in 6.2 mi SSE 20.7 mph - N/A   Mostly Cloudy
11:50 AM 41.0 °F 31.6 °F 33.8 °F 76% 29.53 in 6.2 mi South 20.7 mph - N/A   Mostly Cloudy
12:20 PM 41.0 °F 31.1 °F 33.8 °F 76% 29.53 in 6.2 mi South 23.0 mph - N/A   Overcast
12:50 PM 41.0 °F 31.1 °F 33.8 °F 76% 29.53 in 5.6 mi South 23.0 mph - N/A   Mostly Cloudy
1:20 PM 39.2 °F 29.0 °F 33.8 °F 81% 29.53 in 5.6 mi SSE 21.9 mph - N/A Rain Light Rain
1:50 PM 39.2 °F 29.6 °F 33.8 °F 81% 29.53 in 5.0 mi SSE 19.6 mph - N/A Rain Light Rain
2:20 PM 39.2 °F 30.2 °F 35.6 °F 87% 29.53 in 5.0 mi SSE 17.3 mph - N/A   Mostly Cloudy
2:50 PM 39.2 °F 29.8 °F 35.6 °F 87% 29.53 in 5.0 mi SSE 18.4 mph - N/A   Mostly Cloudy
3:20 PM 37.4 °F 28.2 °F 33.8 °F 87% 29.53 in 5.0 mi SSE 16.1 mph - N/A   Mostly Cloudy
3:50 PM 37.4 °F 27.2 °F 33.8 °F 87% 29.53 in 5.0 mi SSE 19.6 mph - N/A   Mostly Cloudy
4:20 PM 37.4 °F 27.2 °F 33.8 °F 87% 29.53 in 6.2 mi SSE 19.6 mph - N/A   Mostly Cloudy
4:50 PM 39.2 °F 29.8 °F 33.8 °F 81% 29.56 in 6.2 mi SSE 18.4 mph - N/A   Mostly Cloudy
5:20 PM 37.4 °F 28.2 °F 33.8 °F 87% 29.56 in 6.2 mi SE 16.1 mph - N/A   Mostly Cloudy
5:50 PM 37.4 °F 28.2 °F 33.8 °F 87% 29.59 in 6.2 mi SE 16.1 mph - N/A   Mostly Cloudy
6:20 PM 37.4 °F 28.5 °F 35.6 °F 93% 29.59 in 5.6 mi SE 15.0 mph - N/A Rain Light Rain
6:50 PM 37.4 °F 28.9 °F 33.8 °F 87% 29.62 in 5.6 mi SE 13.8 mph - N/A Rain Light Rain
7:20 PM 37.4 °F 28.5 °F 33.8 °F 87% 29.62 in 5.6 mi SE 15.0 mph - N/A Rain Light Rain
7:50 PM 37.4 °F 29.3 °F 33.8 °F 87% 29.62 in 5.6 mi SE 12.7 mph - N/A Rain Light Rain
8:20 PM 37.4 °F 29.8 °F 33.8 °F 87% 29.65 in 5.6 mi SE 11.5 mph - N/A Rain Light Rain
8:50 PM 37.4 °F 29.8 °F 35.6 °F 93% 29.65 in 5.6 mi SE 11.5 mph - N/A Rain Light Rain
9:20 PM 37.4 °F 30.3 °F 35.6 °F 93% 29.65 in 5.6 mi ESE 10.4 mph - N/A Rain Light Rain
9:50 PM 37.4 °F 30.3 °F 35.6 °F 93% 29.68 in 6.2 mi SE 10.4 mph - N/A Rain Light Rain
10:20 PM 37.4 °F 31.4 °F 35.6 °F 93% 29.68 in 6.2 mi SSE 8.1 mph - N/A   Light Drizzle
10:50 PM 39.2 °F 34.2 °F 35.6 °F 87% 29.68 in 6.2 mi SSE 6.9 mph - N/A   Light Drizzle
11:20 PM 37.4 °F 32.8 °F 35.6 °F 93% 29.71 in 6.2 mi SSE 5.8 mph - N/A   Light Drizzle
11:50 PM 37.4 °F 32.8 °F 35.6 °F 93% 29.71 in 6.2 mi SE 5.8 mph - N/A   Light Drizzle